EFIV Weather Reports


Display with metric or nautical units.
time (UTC)temp
F
wind
direction
speed
MPH
gust
MPH
rain 1hr
in
rain 24hr
in
rain mn
in
humidity
%
barometer
mb
20260906154133 43 354 5.0 8.0 0.00 0.00 0.00 79 1012.0
20260906152501 42 39 6.0 10.0 0.00 0.00 0.00 83 1012.0
20260906144501 45 8 12.0 21.0 0.00 0.00 0.00 67 1011.4
20260906142131 45 20 11.0 17.0 0.00 0.00 0.00 71 1011.3
20260906134459 45 26 11.0 19.0 0.00 0.00 0.00 69 1010.9
20260906132459 45 18 13.0 20.0 0.00 0.00 0.00 75 1010.8
20260906124132 45 44 12.0 17.0 0.00 0.00 0.00 70 1010.4
20260906122500 46 14 13.0 20.0 0.00 0.00 0.00 67 1010.2
20260906120458 45 4 11.0 17.0 0.00 0.00 0.00 77 1010.1
20260906114501 43 11 11.0 19.0 0.00 0.00 0.00 82 1010.2
20260906112501 42 14 12.0 19.0 0.00 0.00 0.00 84 1010.1
20260906110131 45 2 9.0 16.0 0.00 0.00 0.00 73 1009.7
20260906104131 43 11 13.0 19.0 0.00 0.00 0.00 78 1009.7
20260906102131 44 4 11.0 17.0 0.00 0.00 0.00 69 1009.0
20260906094502 44 356 10.0 17.0 0.00 0.00 0.00 69 1009.1
20260906092132 43 1 11.0 18.0 0.00 0.00 0.00 70 1009.1
20260906090459 43 6 13.0 18.0 0.00 0.00 0.00 69 1009.0
20260906084459 43 6 13.0 22.0 0.00 0.00 0.00 70 1008.8
20260906082501 43 360 12.0 21.0 0.00 0.00 0.00 69 1008.6
20260906080501 43 6 13.0 23.0 0.00 0.00 0.00 68 1008.4
20260906074459 42 10 16.0 22.0 0.00 0.00 0.00 70 1008.3
20260906072131 41 354 14.0 22.0 0.00 0.00 0.00 73 1008.4
20260906070458 41 359 15.0 25.0 0.00 0.00 0.00 73 1008.3
20260906064130 42 10 14.0 24.0 0.00 0.00 0.00 72 1008.1
20260906062500 42 10 16.0 25.0 0.00 0.00 0.00 72 1007.8
20260906060130 41 7 13.0 22.0 0.00 0.00 0.00 75 1008.1
20260906050500 39 359 10.0 19.0 0.00 0.00 0.00 78 1007.9
20260906044457 38 349 7.0 11.0 0.00 0.00 0.00 80 1007.7
20260906042130 38 354 7.0 13.0 0.00 0.00 0.00 80 1007.6
20260906040459 38 360 9.0 14.0 0.00 0.00 0.00 80 1007.5
20260906034130 38 357 10.0 19.0 0.00 0.00 0.00 80 1007.4
20260906032459 38 358 10.0 15.0 0.00 0.00 0.00 80 1007.2
20260906030500 38 7 10.0 20.0 0.00 0.00 0.00 79 1007.1
20260906022500 38 2 12.0 20.0 0.00 0.00 0.00 79 1006.7
20260906020129 39 1 13.0 20.0 0.00 0.00 0.00 79 1006.7
20260906014130 41 6 12.0 20.0 0.00 0.00 0.00 77 1006.1
20260906012130 40 356 14.0 22.0 0.00 0.00 0.00 78 1006.3
20260906010500 41 6 12.0 20.0 0.00 0.00 0.00 77 1006.1
20260906004501 40 359 12.0 19.0 0.00 0.00 0.00 80 1005.5
20260906002458 40 7 12.0 19.0 0.00 0.00 0.00 79 1005.5
20260906000129 40 6 13.0 21.0 0.00 0.00 0.00 80 1005.6
20260905234459 40 359 13.0 21.0 0.00 0.00 0.00 80 1005.6
20260905232458 40 1 14.0 22.0 0.00 0.00 0.00 80 1005.5
20260905230459 40 358 14.0 26.0 0.00 0.00 0.00 80 1005.4
20260905224457 40 358 14.0 22.0 0.00 0.00 0.00 79 1005.4
20260905222458 40 359 13.0 20.0 0.00 0.00 0.00 78 1005.5
20260905220459 40 1 13.0 22.0 0.00 0.00 0.00 76 1005.3
20260905214459 41 4 14.0 23.0 0.00 0.00 0.00 75 1005.0
20260905212128 41 360 13.0 19.0 0.00 0.00 0.00 72 1004.9
20260905210128 42 358 10.0 17.0 0.00 0.00 0.00 71 1004.7
20260905204457 42 13 11.0 18.0 0.00 0.00 0.00 72 1004.4
20260905202458 42 3 13.0 21.0 0.00 0.00 0.00 72 1004.3
20260905200459 42 2 13.0 20.0 0.00 0.00 0.00 73 1004.2
20260905194128 42 6 11.0 16.0 0.00 0.00 0.00 75 1004.1
20260905192456 41 5 9.0 15.0 0.00 0.00 0.00 78 1004.0
20260905190456 41 11 12.0 19.0 0.00 0.00 0.00 83 1004.0
20260905184458 41 19 18.0 29.0 0.00 0.00 0.00 81 1003.9
20260905182457 42 3 15.0 24.0 0.00 0.00 0.00 79 1003.8
20260905174454 44 27 18.0 28.0 0.00 0.00 0.00 69 1003.3
20260905172456 44 16 15.0 24.0 0.00 0.00 0.00 68 1003.1
20260905170457 43 11 14.0 27.0 0.00 0.00 0.00 73 1003.0
20260905164458 44 20 13.0 22.0 0.00 0.00 0.00 67 1002.8
20260905162129 45 15 16.0 26.0 0.00 0.00 0.00 66 1002.7
20260905160456 45 17 18.0 30.0 0.00 0.00 0.00 69 1002.7